CES5402 ZULS-ZSSS

Flight info

Callsign CES5402
Flight time N/A
Altitude 37100
Route IGDAG W510 ELNUN W9 KDJ V69 WFX B213 ESPEG V154 SNF W269 OLPOV B213 WHA R343 SASAN
Aircraft A320/M-SDE2E3FGILRWXY/LB2

Departure

Time 2026-05-09 06:02
Airport Lhasa Gonggar International Airport (ZULS)

Arrival

Time N/A
Airport Shanghai Hongqiao International Airport (ZSSS)
Time Latitude Longitude Altitude Speed Heading
2026-05-09 05:47 29.29376 90.89370 11560 ft 0 kts 181°
2026-05-09 05:55 29.29377 90.89370 11548 ft 2 kts 181°
2026-05-09 05:55 29.29403 90.89369 11543 ft 4 kts 179°
2026-05-09 05:55 29.29429 90.89371 11541 ft 4 kts 189°
2026-05-09 05:56 29.29448 90.89375 11542 ft 0 kts 192°
2026-05-09 05:58 29.29436 90.89359 11542 ft 4 kts 256°
2026-05-09 05:59 29.29459 90.89322 11543 ft 6 kts 330°
2026-05-09 05:59 29.29503 90.89318 11548 ft 6 kts 342°
2026-05-09 05:59 29.29515 90.89270 11557 ft 7 kts 269°
2026-05-09 05:59 29.29521 90.89213 11542 ft 7 kts 298°
2026-05-09 06:00 29.29570 90.89196 11550 ft 8 kts 358°
2026-05-09 06:00 29.29633 90.89195 11550 ft 10 kts
2026-05-09 06:00 29.29705 90.89195 11551 ft 11 kts 359°
2026-05-09 06:00 29.29770 90.89211 11546 ft 8 kts 49°
2026-05-09 06:01 29.29778 90.89280 11553 ft 10 kts 89°
2026-05-09 06:01 29.29781 90.89451 11554 ft 47 kts 89°
2026-05-09 06:01 29.29791 90.90078 11557 ft 108 kts 89°
2026-05-09 06:01 29.29807 90.91138 11578 ft 156 kts 89°
2026-05-09 06:02 29.29827 90.92539 11578 ft 195 kts 89°
2026-05-09 06:02 29.29835 90.94110 12159 ft 193 kts 88°
2026-05-09 06:02 29.29854 90.95631 12991 ft 191 kts 87°
2026-05-09 06:02 29.29882 90.97163 13690 ft 193 kts 86°
2026-05-09 06:03 29.29912 90.98709 14174 ft 195 kts 88°
2026-05-09 06:03 29.30009 91.00257 14686 ft 195 kts 80°
2026-05-09 06:03 29.30325 91.01802 15049 ft 206 kts 71°
2026-05-09 06:03 29.30910 91.03372 15176 ft 222 kts 61°
2026-05-09 06:04 29.31562 91.05047 15308 ft 239 kts 73°
2026-05-09 06:04 29.31904 91.06968 15435 ft 255 kts 86°
2026-05-09 06:04 29.31841 91.09026 15544 ft 272 kts 100°
2026-05-09 06:04 29.31341 91.11178 15748 ft 289 kts 107°
2026-05-09 06:05 29.30817 91.13522 15874 ft 310 kts 102°
2026-05-09 06:05 29.30431 91.16009 16149 ft 323 kts 98°
2026-05-09 06:05 29.30189 91.18560 16663 ft 328 kts 95°
2026-05-09 06:05 29.30004 91.21180 17239 ft 332 kts 95°
2026-05-09 06:06 29.29806 91.23828 17842 ft 335 kts 95°
2026-05-09 06:06 29.29605 91.26497 18421 ft 338 kts 95°
2026-05-09 06:06 29.29404 91.29192 18930 ft 341 kts 95°
2026-05-09 06:06 29.29201 91.31908 19460 ft 344 kts 95°
2026-05-09 06:07 29.28998 91.34651 19986 ft 347 kts 95°
2026-05-09 06:07 29.28796 91.37413 20505 ft 349 kts 95°
2026-05-09 06:07 29.28590 91.40193 20993 ft 352 kts 96°
2026-05-09 06:07 29.28378 91.43003 21483 ft 355 kts 95°
2026-05-09 06:08 29.28165 91.45830 21958 ft 358 kts 96°
2026-05-09 06:08 29.27953 91.48678 22423 ft 360 kts 96°
2026-05-09 06:08 29.27809 91.50614 22743 ft 362 kts 96°
2026-05-09 06:08 29.27509 91.54440 23354 ft 366 kts 96°
2026-05-09 06:09 29.27346 91.56364 23642 ft 368 kts 96°
2026-05-09 06:09 29.27088 91.59330 24039 ft 371 kts 97°
2026-05-09 06:09 29.26833 91.62237 24413 ft 373 kts 96°
2026-05-09 06:09 29.26570 91.65243 24780 ft 376 kts 96°
2026-05-09 06:10 29.26314 91.68199 25145 ft 379 kts 96°
2026-05-09 06:10 29.26052 91.71221 25508 ft 382 kts 96°
2026-05-09 06:10 29.25792 91.74259 25876 ft 386 kts 96°
2026-05-09 06:10 29.25546 91.77329 26216 ft 389 kts 94°
2026-05-09 06:11 29.25647 91.80477 26347 ft 401 kts 83°
2026-05-09 06:11 29.26239 91.83639 26473 ft 412 kts 72°
2026-05-09 06:11 29.27307 91.86725 26599 ft 422 kts 63°
2026-05-09 06:11 29.28847 91.89626 26723 ft 431 kts 52°
2026-05-09 06:12 29.30849 91.92213 26857 ft 439 kts 42°
2026-05-09 06:12 29.33277 91.94384 26986 ft 446 kts 31°
2026-05-09 06:12 29.35926 91.96292 27122 ft 455 kts 31°
2026-05-09 06:12 29.38634 91.98229 27246 ft 462 kts 31°
2026-05-09 06:13 29.41380 92.00189 27439 ft 468 kts 31°
2026-05-09 06:13 29.44160 92.02173 27718 ft 472 kts 31°
2026-05-09 06:13 29.46940 92.04163 28181 ft 471 kts 31°
2026-05-09 06:13 29.49715 92.06157 28673 ft 470 kts 31°
2026-05-09 06:14 29.52486 92.08155 29147 ft 470 kts 31°
2026-05-09 06:14 29.55254 92.10149 29639 ft 469 kts 31°
2026-05-09 06:14 29.58016 92.12137 30128 ft 468 kts 31°
2026-05-09 06:14 29.60776 92.14125 30536 ft 468 kts 30°
2026-05-09 06:15 29.63537 92.16113 30900 ft 468 kts 30°
2026-05-09 06:15 29.66301 92.18099 31224 ft 469 kts 30°
2026-05-09 06:15 29.69073 92.20090 31551 ft 470 kts 30°
2026-05-09 06:15 29.71842 92.22083 31900 ft 471 kts 30°
2026-05-09 06:16 29.74623 92.24091 32264 ft 471 kts 30°
2026-05-09 06:16 29.77399 92.26101 32621 ft 472 kts 30°
2026-05-09 06:16 29.80175 92.28115 32956 ft 473 kts 30°
2026-05-09 06:16 29.82957 92.30132 33304 ft 473 kts 30°
2026-05-09 06:17 29.85741 92.32148 33677 ft 473 kts 30°
2026-05-09 06:17 29.88531 92.34163 34033 ft 473 kts 30°
2026-05-09 06:17 29.91328 92.36181 34352 ft 474 kts 29°
2026-05-09 06:17 29.94122 92.38195 34617 ft 475 kts 29°
2026-05-09 06:18 29.96885 92.40218 34840 ft 478 kts 32°
2026-05-09 06:18 29.99521 92.42657 35096 ft 482 kts 42°
2026-05-09 06:18 30.01747 92.45492 35303 ft 486 kts 52°
2026-05-09 06:18 30.03571 92.48780 35509 ft 488 kts 63°
2026-05-09 06:19 30.04925 92.52382 35752 ft 490 kts 72°
2026-05-09 06:19 30.05774 92.56191 35927 ft 490 kts 83°
2026-05-09 06:19 30.06072 92.60105 36067 ft 490 kts 92°
2026-05-09 06:19 30.05817 92.64012 36247 ft 488 kts 102°
2026-05-09 06:20 30.05354 92.67897 36438 ft 489 kts 102°
2026-05-09 06:20 30.04868 92.71779 36597 ft 490 kts 103°
2026-05-09 06:20 30.04371 92.75681 36742 ft 492 kts 103°
2026-05-09 06:20 30.03870 92.79599 36898 ft 495 kts 103°
2026-05-09 06:21 30.03374 92.83505 37062 ft 493 kts 103°
2026-05-09 06:21 30.02877 92.87434 37206 ft 496 kts 103°
2026-05-09 06:21 30.01868 92.95385 37230 ft 505 kts 104°
2026-05-09 06:22 30.00839 93.03463 37225 ft 511 kts 103°
2026-05-09 06:22 29.99812 93.11597 37217 ft 513 kts 103°
2026-05-09 06:23 29.98821 93.19758 37215 ft 514 kts 103°
2026-05-09 06:23 29.97852 93.27885 37209 ft 515 kts 103°
2026-05-09 06:24 29.96854 93.36066 37198 ft 516 kts 103°
2026-05-09 06:24 29.95832 93.44258 37200 ft 516 kts 103°
2026-05-09 06:25 29.94817 93.52453 37196 ft 516 kts 103°
2026-05-09 06:25 29.93792 93.60649 37209 ft 517 kts 104°
2026-05-09 06:26 29.92754 93.68851 37204 ft 517 kts 104°
2026-05-09 06:26 29.91726 93.77034 37206 ft 515 kts 103°
2026-05-09 06:27 29.90690 93.85200 37223 ft 517 kts 104°
2026-05-09 06:27 29.89993 93.93481 37231 ft 526 kts 93°
2026-05-09 06:28 29.90320 93.97687 37224 ft 530 kts 82°
2026-05-09 06:28 29.91102 94.01859 37229 ft 532 kts 79°
2026-05-09 06:28 29.92754 94.10095 37275 ft 530 kts 79°
2026-05-09 06:29 29.94381 94.18370 37281 ft 531 kts 79°
2026-05-09 06:29 29.96010 94.26713 37271 ft 535 kts 79°
2026-05-09 06:30 29.97649 94.35072 37291 ft 535 kts 79°
2026-05-09 06:30 29.99286 94.43446 37300 ft 536 kts 79°
2026-05-09 06:31 30.00920 94.51838 37306 ft 536 kts 79°
2026-05-09 06:31 30.02546 94.60223 37301 ft 535 kts 80°
2026-05-09 06:32 30.04166 94.68605 37303 ft 535 kts 80°
2026-05-09 06:33 30.06586 94.81172 37295 ft 536 kts 79°
2026-05-09 06:33 30.08186 94.89581 37314 ft 538 kts 80°
2026-05-09 06:34 30.10593 95.02106 37300 ft 537 kts 78°
2026-05-09 06:34 30.12264 95.10489 37280 ft 536 kts 79°
2026-05-09 06:35 30.13955 95.18893 37292 ft 538 kts 79°
2026-05-09 06:35 30.15630 95.27322 37300 ft 539 kts 79°
2026-05-09 06:36 30.17287 95.35735 37271 ft 536 kts 79°
2026-05-09 06:36 30.18931 95.44151 37307 ft 538 kts 79°
2026-05-09 06:37 30.20584 95.52630 37332 ft 542 kts 79°
2026-05-09 06:37 30.22243 95.61120 37318 ft 539 kts 78°
2026-05-09 06:38 30.23880 95.69526 37302 ft 536 kts 79°
2026-05-09 06:38 30.25493 95.77918 37320 ft 535 kts 79°
2026-05-09 06:39 30.27097 95.86289 37329 ft 537 kts 79°
2026-05-09 06:39 30.28716 95.94715 37294 ft 537 kts 79°
2026-05-09 06:40 30.30331 96.03158 37282 ft 538 kts 79°
2026-05-09 06:40 30.32021 96.11614 37274 ft 540 kts 78°
2026-05-09 06:41 30.33750 96.20054 37243 ft 539 kts 78°
2026-05-09 06:41 30.35451 96.28516 37219 ft 540 kts 78°
2026-05-09 06:42 30.37118 96.36944 37193 ft 535 kts 79°
2026-05-09 06:42 30.38770 96.45338 37161 ft 536 kts 79°
2026-05-09 06:43 30.40422 96.53715 37177 ft 530 kts 79°
2026-05-09 06:43 30.42068 96.62113 37146 ft 536 kts 79°
2026-05-09 06:44 30.43720 96.70549 37126 ft 536 kts 77°
2026-05-09 06:44 30.45359 96.78927 37112 ft 536 kts 79°
2026-05-09 06:45 30.47000 96.87353 37105 ft 537 kts 79°
2026-05-09 06:45 30.48636 96.95811 37094 ft 537 kts 79°
2026-05-09 06:46 30.50261 97.04255 37102 ft 536 kts 79°
2026-05-09 06:46 30.51718 97.12752 37096 ft 536 kts 88°
2026-05-09 06:47 30.51601 97.21309 37081 ft 529 kts 101°
2026-05-09 06:47 30.50883 97.29804 37068 ft 530 kts 101°
2026-05-09 06:48 30.50173 97.38314 37063 ft 531 kts 100°
2026-05-09 06:48 30.49469 97.46831 37050 ft 530 kts 101°
2026-05-09 06:49 30.48756 97.55343 37045 ft 531 kts 100°
2026-05-09 06:49 30.48039 97.63843 37059 ft 529 kts 101°
2026-05-09 06:50 30.47309 97.72335 37049 ft 529 kts 101°
2026-05-09 06:50 30.46579 97.80794 37054 ft 533 kts 101°
2026-05-09 06:51 30.45837 97.89334 37047 ft 533 kts 101°
2026-05-09 06:51 30.45091 97.97861 37049 ft 532 kts 101°
2026-05-09 06:52 30.44344 98.06373 37046 ft 532 kts 101°
2026-05-09 06:52 30.43591 98.14914 37037 ft 533 kts 101°
2026-05-09 06:53 30.42830 98.23477 37052 ft 536 kts 99°
2026-05-09 06:53 30.42160 98.32079 37062 ft 536 kts 99°
2026-05-09 06:54 30.41535 98.40677 37064 ft 536 kts 99°
2026-05-09 06:54 30.40877 98.49271 37068 ft 536 kts 100°
2026-05-09 06:55 30.40182 98.57879 37075 ft 536 kts 100°
2026-05-09 06:55 30.39487 98.66412 37067 ft 536 kts 100°
2026-05-09 06:56 30.38793 98.75007 37053 ft 536 kts 99°
2026-05-09 06:56 30.38096 98.83613 37069 ft 538 kts 100°
2026-05-09 06:57 30.37396 98.92239 37054 ft 539 kts 99°
2026-05-09 06:57 30.36677 99.00871 37075 ft 539 kts 100°
2026-05-09 06:58 30.35952 99.09509 37073 ft 539 kts 99°
2026-05-09 06:58 30.35230 99.18131 37073 ft 537 kts 100°
2026-05-09 06:59 30.34508 99.26713 37066 ft 535 kts 100°
2026-05-09 06:59 30.33766 99.35304 37094 ft 538 kts 99°
2026-05-09 07:00 30.33018 99.43881 37121 ft 540 kts 100°
2026-05-09 07:00 30.32272 99.52526 37131 ft 540 kts 100°
2026-05-09 07:01 30.31527 99.61167 37132 ft 540 kts 100°
2026-05-09 07:01 30.30762 99.69821 37128 ft 541 kts 100°
2026-05-09 07:02 30.29990 99.78474 37135 ft 540 kts 100°
2026-05-09 07:02 30.29217 99.87116 37134 ft 541 kts 100°
2026-05-09 07:03 30.28440 99.95759 37111 ft 540 kts 100°
2026-05-09 07:03 30.27675 100.04412 37110 ft 541 kts 99°
2026-05-09 07:04 30.27136 100.11629 37116 ft 542 kts 98°
2026-05-09 07:04 30.26445 100.21734 37126 ft 542 kts 99°
2026-05-09 07:05 30.25809 100.30426 37135 ft 542 kts 99°
2026-05-09 07:05 30.25128 100.39110 37127 ft 542 kts 99°
2026-05-09 07:06 30.24565 100.46320 37101 ft 541 kts 99°
2026-05-09 07:06 30.23890 100.55004 37109 ft 543 kts 99°
2026-05-09 07:07 30.23219 100.63692 37088 ft 542 kts 99°
2026-05-09 07:07 30.22542 100.72378 37086 ft 542 kts 99°
2026-05-09 07:08 30.21848 100.81052 37088 ft 542 kts 99°
2026-05-09 07:08 30.21138 100.89712 37077 ft 540 kts 101°
2026-05-09 07:09 30.20435 100.98365 37097 ft 540 kts 99°
2026-05-09 07:09 30.19733 101.07025 37117 ft 542 kts 99°
2026-05-09 07:10 30.19024 101.15672 37107 ft 541 kts 99°
2026-05-09 07:10 30.18307 101.24335 37163 ft 539 kts 99°